sat.trackr.live / text

‹ back to catalog

UNIFORM 1

NORAD 39767 · 2014-029B

PAYLOAD ACTIVE UNKNOWN

§ Identity

Operator
Country
JPN
Launch date
2014-05-24
Launch site
TANSC
Launch vehicle
Mass (kg)
RCS (m²)
0.25

External: N2YO · Heavens-Above · Gunter

§ Orbital elements

Epoch: 2026-05-25T04:49:01.049376Z

Period
96.27 min
Inclination
97.8039°
Eccentricity
0.0005642
Mean motion
14.95734398 rev/d
Perigee alt
576.2 km
Apogee alt
584.0 km
Semi-major
6,958.2 km
B*
1.8440e-4
RAAN
242.6704°
Arg perigee
39.7826°
Mean anomaly
320.3808°
Rev number
65,078

§ Raw data

UNIFORM 11 39767U 14029B   26145.20070659  .00001996  00000+0  18440-3 0  99992 39767  97.8039 242.6704 0005642  39.7826 320.3808 14.95734398650780

JSON: /api/v1/satellites/39767 · /tle

For live sub-satellite position, see the globe view (requires WebGL).

§ Visibility from observer

Set your observer location to see the next 7 days of passes ≥ 10°. The values pass through the URL so the page stays shareable.

No JS? Fill the form by hand. The geolocation button needs JavaScript.

§ Radio — SatNOGS DB

ModeDescriptionDownlinkUplink
FM S-band telemetry 2.228 GHz

1 transmitter · refreshed weekly from db.satnogs.org